GLOBALSTAR M008 [-]

Last updated on Thu Dec 28 2023 00:02:57 GMT+0000 (Coordinated Universal Time)

1 25309U 98023D 23361.34671906 -.00000082 00000+0 11078-3 0 9992 2 25309 51.9990 317.3421 0002706 111.9088 54.5696 12.36033793171335

Satellite not in orbit

GLOBALSTAR M008 [-]